Home   Weather   Doncaster   Past weeks
Flag for United Kingdom

Past Weather in Doncaster, England, United Kingdom — Yesterday and Last 2 Weeks

Now
43 °F

Clear.


Feels Like: 39 °F
Forecast: 56 / 48 °F
Wind: 7 mph from Southwest

Location: Scampton

Current Time: Oct 17, 2019 at 6:54:28 am

Latest Report: Oct 17, 2019 at 5:50 am


Visibility: N/A

Pressure: 29.65 "Hg

Humidity: 87%

Dew Point: 39 °F

Location of DoncasterLocation

Past Weather in Doncaster — Graph

°F

Doncaster Temperature Yesterday

Maximum temperature yesterday: 57 °F (at 11:50 am)
Minimum temperature yesterday: 39 °F (at 11:50 pm)
Average temperature yesterday: 50 °F

High & Low Weather Summary for the Past Weeks

 TemperatureHumidityPressure
High61 °F (Oct 11, 11:50 am)100% (Oct 3, 3:50 am)30.15 "Hg (Oct 3, 3:50 am)
Low36 °F (Oct 3, 5:50 am)55% (Oct 8, 3:50 pm)29.45 "Hg (Oct 13, 12:50 pm)
Average51 °F90%29.71 "Hg
* Reported Oct 2 4:50 am — Oct 17 4:50 am, Doncaster. Weather by CustomWeather, © 2019

Note: Actual official high and low records may vary slightly from our data, if they occured in-between our weather recording intervals... More about our weather records

Advertising

Doncaster Weather History for the Previous 24 Hours

Scroll right to see more
 ConditionsComfort  
Time TempWeatherWind HumidityBarometerVisibility
4:50 am
Thu, Oct 17
43 °FClear.8 mph87%29.65 "HgN/A
3:50 am43 °FClear.8 mph93%29.65 "HgN/A
2:50 am43 °FClear.9 mph93%29.68 "HgN/A
1:50 am41 °FClear.7 mph100%29.68 "HgN/A
12:50 am39 °FClear.6 mph100%29.65 "HgN/A
11:50 pm
Wed, Oct 16
39 °FClear.9 mph100%29.65 "HgN/A
10:50 pm45 °FClear.6 mph93%29.65 "HgN/A
9:50 pm43 °FClear.7 mph100%29.62 "HgN/A
8:50 pm43 °FClear.8 mph93%29.62 "HgN/A
7:50 pm45 °FClear.6 mph93%29.59 "HgN/A
6:50 pm46 °FClear.6 mph87%29.59 "HgN/A
5:50 pm50 °FSunny.7 mph82%29.56 "HgN/A
4:50 pm55 °FSunny.12 mph72%29.56 "HgN/A
3:50 pm57 °FScattered clouds.12 mph72%29.56 "HgN/A
2:50 pm55 °FBroken clouds.15 mph77%29.53 "HgN/A
1:50 pm55 °FPartly sunny.16 mph82%29.50 "HgN/A
12:50 pm57 °FBroken clouds.16 mph88%29.50 "HgN/A
11:50 am57 °FPartly sunny.12 mph94%29.47 "HgN/A
10:50 am55 °FLow clouds.9 mph100%29.47 "HgN/A
9:50 am54 °FSprinkles. Partly sunny.13 mph100%29.47 "Hg3 mi
8:50 am52 °FSprinkles. Partly sunny.12 mph100%29.47 "Hg2 mi
7:50 am50 °FRain showers. Low clouds.12 mph100%29.50 "Hg1 mi
6:50 am48 °FPartly cloudy.8 mph100%29.50 "Hg6 mi
Weather by CustomWeather, © 2019

See weather overview